Montpelier, VT

12:29 PM EDT on August 20, 2017 (GMT -0400)
Knapp State

Weather History for KMPV - December, 2010

Change the Weather History Date:

Friday, December 24, 2010

  Actual Average Record
Temperature  
Mean Temperature 15 °F 20 °F  
Max Temperature 23 °F 29 °F 66 °F (2015)
Min Temperature 7 °F 11 °F -23 °F (1989)
Degree Days  
Heating Degree Days 50 45  
Month to date heating degree days 978  
Since 1 July heating degree days 2824  
Cooling Degree Days 0 0  
Month to date cooling degree days 0  
Year to date cooling degree days 264  
Moisture  
Dew Point 11 °F    
Average Humidity 79    
Maximum Humidity 88    
Minimum Humidity 65    
Precipitation  
Precipitation 0.00 in 0.08 in 0.97 in (2003)
Month to date precipitation 2.21  
Year to date precipitation 36.74  
Sea Level Pressure  
Sea Level Pressure 30.12 in    
Wind  
Wind Speed 6 mph (NNW)    
Max Wind Speed 12 mph    
Max Gust Speed 20 mph    
Visibility 10 miles    
Events      
T = Trace of Precipitation, MM = Missing Value Source: NWS Daily Summary

Daily Weather History Graph

Daily Weather History Graph

Search for Another Location

Airport or City:

Trip Planner

Search our weather history database for the weather conditions in past years. The results will help you decide how hot, cold, wet, or windy it might be!

Date:

Astronomy

Dec. 24, 2010 Rise Set
Actual Time 7:23 AM EST 4:15 PM EST
Civil Twilight 6:50 AM EST 4:49 PM EST
Nautical Twilight 6:13 AM EST 5:25 PM EST
Astronomical Twilight 5:38 AM EST 6:01 PM EST
Moon 8:27 PM EST (12/24) 9:35 AM EST (12/24)
Length of Visible Light 9h 58m
Length of Day
8h 52m
Waning Gibbous, 86% of the Moon is Illuminated
Dec 24
Waning Gibbous
Dec 27
Last Quarter
Jan 4
New
Jan 12
First Quarter
Jan 19
Full

Hourly Weather History & Observations

Time (EST) Temp. Windchill Dew Point Humidity Pressure Visibility Wind Dir Wind Speed Gust Speed Precip Events Conditions
12:51 AM 21.9 °F 11.7 °F 16.0 °F 78% 30.06 in 10.0 mi NW 9.2 mph - N/A   Overcast
1:51 AM 21.0 °F 9.3 °F 16.0 °F 81% 30.08 in 10.0 mi NW 11.5 mph 19.6 mph N/A   Overcast
2:51 AM 19.9 °F 11.1 °F 15.1 °F 81% 30.10 in 10.0 mi NW 6.9 mph - N/A   Overcast
3:51 AM 19.0 °F 10.0 °F 15.1 °F 85% 30.09 in 10.0 mi NNW 6.9 mph - N/A   Overcast
4:51 AM 18.0 °F 8.7 °F 12.9 °F 81% 30.10 in 10.0 mi NNW 6.9 mph - N/A   Overcast
5:51 AM 17.1 °F - 12.9 °F 84% 30.12 in 10.0 mi Calm Calm - N/A   Overcast
6:51 AM 17.1 °F 10.0 °F 12.9 °F 84% 30.13 in 10.0 mi NW 4.6 mph - N/A   Overcast
7:24 AM 17.6 °F 9.3 °F 12.2 °F 79% 30.08 in 10.0 mi NNW 5.8 mph - N/A   Overcast
7:51 AM 17.1 °F 8.7 °F 12.0 °F 81% 30.15 in 10.0 mi NNW 5.8 mph - N/A   Overcast
8:51 AM 16.0 °F - 12.0 °F 84% 30.16 in 10.0 mi Calm Calm - N/A   Partly Cloudy
9:51 AM 17.1 °F - 12.0 °F 81% 30.17 in 10.0 mi Calm Calm - N/A   Partly Cloudy
10:34 AM 19.4 °F 11.5 °F 12.2 °F 74% 30.09 in 10.0 mi NNE 5.8 mph - N/A   Mostly Cloudy
10:42 AM 19.4 °F 12.8 °F 12.2 °F 74% 30.09 in 10.0 mi North 4.6 mph - N/A   Scattered Clouds
10:51 AM 19.9 °F 14.9 °F 12.9 °F 74% 30.15 in 10.0 mi Variable 3.5 mph - N/A   Scattered Clouds
11:51 AM 21.2 °F 11.7 °F 12.2 °F 68% 30.06 in 10.0 mi NW 8.1 mph - N/A   Clear
12:51 PM 21.9 °F 10.4 °F 12.9 °F 68% 30.11 in 10.0 mi NW 11.5 mph - N/A   Clear
1:51 PM 23.0 °F 15.8 °F 14.0 °F 68% 30.10 in 10.0 mi NNW 5.8 mph - N/A   Clear
2:51 PM 23.0 °F 15.8 °F 12.9 °F 65% 30.11 in 10.0 mi NNW 5.8 mph - N/A   Clear
3:51 PM 21.0 °F 11.4 °F 12.0 °F 68% 30.11 in 10.0 mi NNW 8.1 mph - N/A   Clear
4:51 PM 19.0 °F 12.3 °F 12.0 °F 74% 30.14 in 10.0 mi North 4.6 mph - N/A   Clear
5:51 PM 15.1 °F 9.4 °F 10.0 °F 80% 30.15 in 10.0 mi NNE 3.5 mph - N/A   Clear
6:51 PM 12.0 °F - 8.1 °F 84% 30.16 in 10.0 mi Calm Calm - N/A   Clear
7:51 PM 10.0 °F - 7.0 °F 87% 30.17 in 10.0 mi Calm Calm - N/A   Partly Cloudy
8:51 PM 9.0 °F 2.4 °F 5.0 °F 84% 30.17 in 10.0 mi SSW 3.5 mph - N/A   Clear
9:51 PM 9.0 °F - 5.0 °F 84% 30.17 in 10.0 mi Calm Calm - N/A   Clear
10:51 PM 7.0 °F - 3.9 °F 87% 30.17 in 10.0 mi Calm Calm - N/A   Clear
11:51 PM 9.0 °F - 6.1 °F 88% 30.14 in 10.0 mi Calm Calm - N/A   Clear